Live-Position
3D-Globus wird geladen...
Über Starlink 5657
Group: 3 satellites
Beschreibung wird geladen...
Nächste Überflüge
Passes for default location (London). Set your location on the main map for personalized predictions.
Höhenverlauf
Loading altitude history...
Y: Altitude (km)
No altitude history available
Zweizeiliger Elementsatz
1 55342U 23013M 26139.50002315 -.00010368 00000-0 -36784-3 0 9996
2 55342 43.0036 263.8811 0001823 254.2650 285.3427 15.27570783 5847
Epoch: 19. Mai 2026 •
Age: 10 hours
Aktueller Status
Höhe 483.2 km
Geschwindigkeit 7.63 km/s
Subsatellitenpunkt -0.55°S,
50.31°E
Startdatum 26. Jan. 2023
Alter 3.3 years
Typ internet
Startgruppe
Falcon 9 •
Group 5-2 •
51 satellites
Starlink 5492
55331
Starlink 5491 55332
Starlink 5493 55333
Starlink 5652 55334
Starlink 5660 55335
Starlink 5655 55336
Starlink 5667 55337
Starlink 5658 55338
Starlink 5671 55339
Starlink 5675 55340
Starlink 5670 55341
Starlink 5661 55343
Starlink 5653 55345
Starlink 5631 55346
Starlink 5663 55347
Starlink 5609 55348
Starlink 5666 55349
Starlink 5668 55350
Starlink 5659 55351
Starlink 5547 55352
...and 30 more
Technische Details
Klassifizierung Payload
Masse 305.00 kg
Trockenmasse 290.00 kg
Gesamtmasse 305.00 kg
Länge 0.20 m
Durchmesser 2.80 m
Spannweite 9.00 m
Form Box + pan
Hersteller SPXS
Bus-Typ Starlink
Phasenstatus In Orbit
Besitzer/Staat SPXS/US
Most Searched
Loading...